Location: Drawsko Pomorskie
(53.5317°N, 15.8111°E)
Time: 18:07:12
(UTC+01:00)

Envisat - Pass Details

Date: 23 October 2019
Orbit: 764 x 766 km, 98.1° (Epoch: 18 November)

Event Time Altitude Azimuth Distance (km) Brightness Sun altitude
Rises 19:19:37 0° 181° (S) 3,223 6.2 -14.9°
Reaches altitude 10° 19:21:59 10° 187° (S) 2,301 5.5 -15.3°
Maximum altitude 19:26:53 48° 261° (W) 1,004 4.1 -16.0°
Drops below altitude 10° 19:31:49 10° 336° (NNW) 2,317 5.8 -16.7°
Sets 19:34:14 0° 342° (NNW) 3,248 6.5 -17.1°
